Location: Pandora
(40.9481°N, 83.9611°W)
Time: 14:23:03
(UTC-04:00)

N. Korean satellite - Pass Details

Date: 20 September 2021
Orbit: 450 x 495 km, 97.3° (Epoch: 15 October)

Event Time Altitude Azimuth Distance (km) Brightness Sun altitude
Rises 06:34:23 0° 17° (NNE) 2,508 10.6 -9.7°
Reaches altitude 10° 06:36:29 10° 24° (NNE) 1,635 9.7 -9.3°
Maximum altitude 06:39:53 47° 99° (E) 635 7.7 -8.7°
Drops below altitude 10° 06:43:19 10° 175° (S) 1,647 9.2 -8.0°
Sets 06:45:26 0° 181° (S) 2,530 10.1 -7.6°
